Location: Brunembert
(50.7122°N, 1.8935°E)
Time: 09:35:49
(UTC+00:00)

ATLAS 5 CENTAUR R/B - Pass Details

Date: 22 April 2021
Orbit: 255 x 14173 km, 60.8° (Epoch: 04 May)

Event Time Altitude Azimuth Distance (km) Brightness Sun altitude
Rises 19:53:55 0° 296° (WNW) 1,956 7.0 -8.6°
Reaches altitude 10° 19:56:12 10° 261° (W) 1,049 4.1 -8.9°
Maximum altitude 19:57:14 13° 228° (SW) 954 3.3 -9.0°
Drops below altitude 10° 19:58:23 10° 196° (SSW) 1,205 3.4 -9.2°
Enters shadow 20:00:08 - 173° (S) 1,950 4.2 -9.4°
